Погода в Екатеринбурге

Погода в Екатеринбурге : погода сейчас, прогноз погоды и архив. Всё, что Вы хотите узнать о погоде в Екатеринбурге!

Хотите узнать прогноз погоды в Екатеринбурге? Тогда Вам сюда: Погода в Екатеринбурге

Поиск расширенной информации на нашем сайте:

Другие новости

Новости СМИ2

Главная страница сайта

Новости сайта

02.10.2013

Напоминаем, что на нашем новом сайте вы можете получить высокодетализированные прогнозы погоды по пунктам России, СНГ и мира (включающие важные для авиации метеовеличины, такие как направление и скорость ветра, видимость, явления погоды, количество и форма облачности, нижняя и верхняя граница облачности), а также ознакомиться с разнообразными материалами по авиационной метеорологии и подборкой полезных ссылок на эту тему.

Сайт Метеоцентр.Азия посвящён разработке технологий оптимизации авиаметеорологического обслуживания, включая проектирование и перспективное создание нескольких автоматизированных авиаметеорологических систем:
- система выпуска высокодетальных прогностических карт явлений погоды для нижнего воздушного пространства по России и ближнему зарубежью;
- система верификации прогнозов TAF (выпускаемых синоптиками официальных АМСГ РФ и ближнего зарубежья) и AUTOTAF (выпускаемых сайтом Метеоцентр.Азия) - выявление ошибок, онлайн-сопоставление с фактической погодой METAR, автоматическое внесение коррективов в прогнозы при резком отклонении фактической погоды от прогноза, подсчёт оправдываемости прогнозов по элементам и в целом;
- система обработки, анализа и отображения авиаметеорологической информации для применения провайдерами метеорологической информации.


Погода в Екатеринбурге - сегодня

Время (UTC), дата Ветер
(°,м/с) 
Видим.   Явления Облачность Т
(°С)
Тd
(°С)
f(%) Тe
(°С)
Pmin
(гПа)
dP
(гПа)
Po
(мм)
O2
(г/м3)
Тmin Tmax R s Состояние
почвы
09 22.04.17 260 (З) 4{12}  20000 м    4/0 верхняя 
[Ci]
+8.4 -11.6 23 +7  1012.5  -0.6  734  288           
12 22.04.17 240 (ЮЗ) 4{10}  20000 м    10/5 1000 м верхняя 
[Sc|Ci]
+8.8 -12.4 21 +8  1011.1  -1.3  733  287           
15 22.04.17 210 (ЮЗ) 2{10}  20000 м    10/0 средняя 
[Ac As]
+6.8 -11.3 26 +7  1011.1  -0.3  733  289    +10.2       
18 22.04.17 140 (ЮВ) 10 км    10/0 средняя 
[Ac As]
+5.5 -11.4 28 +5  1009.9  -1.3  732  290           
21 22.04.17 170 (Ю) 10 км    10/0 средняя 
[Ac As]
+5.3 -7.1 40 +4  1008.3  -1.6  731  290           
00 23.04.17 140 (ЮВ) 10 км    10/0 средняя 
[Ac As]
+5.4 -4.6 48 +4  1005.6  -2.5  729  288           
03 23.04.17 130 (ЮВ) 3{10}  10 км  в посл. час дождь  10/0 средняя 
[Ac As]
+5.1 -4.2 51 +4  1003.2  -2.4  727  288  +4.5    0.0    влажная 
06 23.04.17 130 (ЮВ) 3{10}  20000 м  {дождь}  9/3 600 м верхняя 
[Sc|Cs]
+8.1 -4.2 41 +7  1000.7  -2  725  284           
09 23.04.17 170 (Ю) 20000 м  слаб. ливневой дождь  10/10 600 м кучево-дожд. 
[Cb cap]
+5.8 +0.7 70 +5  1002.1  1.1  726  286           
12 23.04.17 290 (З) 20000 м  {ливн. осадки}  10/10 600 м кучево-дожд. 
[Cb calv]
+5.6 +0.6 70 +4  1004.5  2.3  728  287           
15 23.04.17 280 (З) 10 км    10/10 600 м кучево-дожд. 
[Cb calv]
+5 +1.3 77 +3  1007.2  2.5  730  289    +8.6  0.0     
18 23.04.17 270 (З) 5-10{10}  10 км    10/10 600 м кучево-дожд. 
[Cb calv]
+4.1 +0 75 +2  1010.9  3.5  733  291           
21 23.04.17 270 (З) 3{10}  10 км  {ливн. осадки}  9/9 600 м кучево-дожд. 
[Cb calv]
+3.9 +0.3 77 +3  1012  733  291           
00 24.04.17 240 (ЮЗ) 10 км  {ливн. осадки}  8/6 600 м верхняя 
[Sc|Cs]
+2.5 -0.3 82 +2  1014.3  2.1  735  293           
03 24.04.17 210 (ЮЗ) 20000 м    8/6 600 м верхняя 
[Sc|Cs]
+5 +0.6 73 +5  1015.5  1.5  736  291  +2.1    0.0    влажная 
06 24.04.17 200 (Ю) 20000 м    10/1 600 м средняя, верхняя 
[Sc|Ac trans|Ci fib]
+11.1 -3.3 36 +11  1014.3  -0.5  736  285           
09 24.04.17 160 (Ю) 5-10{10}  20000 м    10/0 средняя 
[Ac As]
+9.4 -2.7 42 +8  1014.9  0.4  736  287           
12 24.04.17 130 (ЮВ) 4{11}  4000 м  слаб. дождь  10/0 средняя 
[As op]
+5.2 +3.6 89 +4  1013.3  -2  734  290           
15 24.04.17 110 (В) 4000 м  слаб. дождь  10/0 средняя 
[As op]
+5.2 +4.1 93 +4  1011.3  -1.9  733  289    +12.4     
18 24.04.17 120 (ЮВ) 20000 м  слаб. дождь  10/10 300 м 
[Ns]
+6.2 +4.9 91 +5  1007.3  -3.8  730  287           
21 24.04.17 130 (ЮВ) 20000 м  в посл. час дождь  10/0 средняя 
[Ac As]
+7.2 +5.3 88 +6  1003.8  -3.3  728  285           
00 25.04.17 140 (ЮВ) 20000 м  дымка{дождь}  10/4 600 м средняя 
[Sc diur, vesp|Ac und]
+7.6 +5.6 87 +7  1002.2  -1.5  727  284           
03 25.04.17 230 (ЮЗ) 5-10{12}  10 км    4/4 600 м 
[Cu Sc]
+9.5 +4.1 69 +8  1003.1  1.1  727  283  +5.3      влажная 
06 25.04.17 220 (ЮЗ) 6-14{14}  20000 м    10/10 600 м 
[Sc diur, vesp]
+9.3 +2.2 61 +8  1006.5  3.3  730  284           
09 25.04.17 240 (ЮЗ) 7-13{14}  20000 м    4/4 1000 м 
[Sc diur, vesp]
+12.5 +0.9 45 +11  1009.4  3.1  732  282           
Время (UTC), дата Ветер
(°,м/с) 
Видим.   Явления Облачность Т
(°С)
Тd
(°С)
f(%) Тe
(°С)
Pmin
(гПа)
dP
(гПа)
Po
(мм)
O2
(г/м3)
Тmin Tmax R s Состояние
почвы

Для получения пояснительной информации подведите курсор к названию столбца.

ПОГОДА в Екатеринбурге - архив

Всё, что Вы хотите узнать о погоде в Екатеринбурге - удобно и подробно!

Выберите нужную дату (начиная с 1 января 2015* года) и нажмите кнопку "Найти".
Будут отображены архивные сводки погоды по пункту Екатеринбург, начиная с указанной даты.


Отображать данные в формате CSV (для использования в таблицах Excel)


Внимание! Наш архив погоды предназначен исключительно для личного некоммерческого использования в познавательных целях. Если Вам необходимы официальные справки о состоянии погоды (для производственных, юридических, коммерческих и т.п. целей), обращайтесь в органы Росгидромета.

*Примечание: данная дата относится к архиву по метеостанциям СССР (Россия, СНГ, Балтия).
Архив по метеостанциям Зарубежной Европы и Азии (кроме Китая) хранится 10 дней, по другим регионам земного шара (Китай, Африка, Америка, Австралия, Океания) - 1 день.

Екатеринбург - район местоположения метеостанции


Название, широта, долгота, высота метеостанции:
Екатеринбург (город) 56.8°ш. 60.6°д. 283 м над ур. моря [Российская Федерация]

Дополнительная информация

В oтличие oт бoльшинства пoгoдных сайтoв мы публикуем пoдрoбную метеoинфoрмацию в детальнoм прoфессиoнальнoм фoрмате.

Характеристики температуры и влажнoсти вoздуха измеряются на высoте 2 м в тени вдали oт зданий и деревьев.
Скoрoсть ветра измеряется на высoте 10 м (на урoвне рoста челoвека скoрoсть ветра ниже в 1.5-2 раза). Если метеoстанция нахoдится в гoрoде или в лесу, тo скoрoсть ветра занижена на 2-4 м/с пo сравнению с oткрытым местoм. Скoрoсть ветра над акватoриями крупных рек и oзёр, а также на вершинах хoлмoв на 2-5 м/с выше, чем в oбычных услoвиях.
Атмoсфернoе давление в разных тoчках местнoсти мoжет значительнo oтличаться oт давления на метеoстанции, в зависимoсти oт услoвий рельефа (при пoдъёме на 10 м давление пoнижается примернo на 1 мм рт.ст.).